Погода в Цуге

Швейцария     47°09′58″N   8°30′55″E
темп.,
°C
ветер,
м/с
пор.,
м/с
влажн.,
%
обл.,
%
осадки,
мм/ч
давл.,
гПа
погр.,
м
10 мая, пн
пн1023:00+11юв377914 0.0 1008108
02:00+10юв368487 0.0 100899
05:00+10ю1382100 0.0 100753
08:00+13зюз1274100 0.0 1009114
11:00+20зсз135140 0.0 10081051
14:00+19сз5459100 0.0 10091078
17:00+17ссз2268100 0.1 1008537
20:00+13ссз2288100 0.1 100753
11 мая, вт
вт1123:00+12з1298100 0.5 1008145
02:00+10зюз2397100 0.8 1010322
05:00+9юз1497100 0.3 1010317
08:00+9ююз1196100 0.6 101060
11:00+9з1296100 0.1 1010233
14:00+10зюз1296100 1.3 1010254
17:00+9ю1198100 1.9 101097
20:00+10юз1194100 2.6 101036
12 мая, ср
ср1223:00+8зюз3897100 2.9 1013485
02:00+8ююз3896100 6.4 1013717
05:00+7юз4996100 5.1 1014766
08:00+7юз2796100 7.3 1014549
11:00+7юз2696100 1.5 1013771
14:00+7юз2596100 4.4 1013762
17:00+6юз2596100 4.2 1013948
20:00+5ю2498100 9.4 1014209
13 мая, чт
чт1323:00+5ююз2698100 5.4 1013428
02:00+5ю3698100 11.8 1013350
05:00+5ююз2598100 4.4 1012271
08:00+5ю2698100 8.5 1011313
11:00+6ююз2698100 4.0 1011365
14:00+6ю2497100 6.7 1011328
17:00+7ю2497100 1.4 1011281
20:00+7ю2497100 2.8 1011135
14 мая, пт
пт1423:00+6ююв239798 0.3 101185
02:00+5ю119678 0.3 101121
05:00+5ю1196100 0.0 101014
08:00+6ююз119499 0.0 101158
11:00+9зюз1185100 0.0 1011317
14:00+14сз215955 0.2 10091303
17:00+14сз116191 0.6 10091171
20:00+11ююв0085100 1.6 101010